This demonstration page uses our WeatherBlox Daily Observations layout. Learn more.

Left ArrowRight Arrow

Hourly Observations for July 19, 2019

Temp ( °F °C ) Dew Point ( °F °C ) Humidity (%) Winds ( mph kmh ) Pressure ( in mb ) Visibility ( mi km ) Precip ( " mm )
12:56 am 00:56 Clear 79 26.1 72 22.2 79 79 S 12 19 29.66 1004 10 16 0.00 0.00
1:56 am 01:56 Clear 80 26.7 71 21.7 74 74 SSW 13 20 29.67 1005 10 16 0.00 0.00
2:56 am 02:56 Clear 79 26.1 71 21.7 77 77 SSW 14 22 29.66 1004 10 16 0.00 0.00
3:56 am 03:56 Clear 79 26.1 70 21.1 74 74 SSW 16 26 29.65 1004 10 16 0.00 0.00
4:56 am 04:56 Clear 78 25.6 70 21.1 76 76 SSW 14 22 29.65 1004 10 16 0.00 0.00
5:56 am 05:56 Clear 76 24.4 70 21.1 82 82 SSW 13 20 29.65 1004 10 16 0.00 0.00
6:56 am 06:56 Sunny 75 23.9 70 21.1 84 84 SSW 12 19 29.66 1004 10 16 0.00 0.00
7:56 am 07:56 Sunny 78 25.6 70 21.1 76 76 S 13 20 29.67 1005 10 16 0.00 0.00
8:56 am 08:56 Sunny 81 27.2 71 21.7 72 72 SSW 16 26 29.67 1005 10 16 0.00 0.00
9:56 am 09:56 Sunny 84 28.9 71 21.7 65 65 SSW 16 26 29.68 1005 10 16 0.00 0.00
10:56 am 10:56 Sunny 86 30 72 22.2 63 63 SSW 16 26 29.68 1005 10 16 0.00 0.00
11:56 am 11:56 Sunny 88 31.1 73 22.8 61 61 SSW 15 24 29.68 1005 10 16 0.00 0.00
12:56 pm 12:56 Sunny 90 32.2 75 23.9 62 62 SSW 14 22 29.68 1005 10 16 0.00 0.00
1:56 pm 13:56 Sunny 91 32.8 76 24.4 61 61 S 12 19 29.68 1005 10 16 0.00 0.00
2:56 pm 14:56 Sunny 94 34.4 76 24.4 56 56 S 14 22 29.67 1005 10 16 0.00 0.00
3:56 pm 15:56 Sunny 95 35 78 25.6 58 58 SSE 13 20 29.66 1005 10 16 0.00 0.00
4:56 pm 16:56 Sunny 95 35 77 25 56 56 SSE 12 19 29.65 1004 10 16 0.00 0.00
5:56 pm 17:56 Sunny 95 35 78 25.6 58 58 SSE 12 19 29.64 1004 10 16 0.00 0.00
6:56 pm 18:56 Sunny 94 34.4 78 25.6 60 60 SE 7 11 29.65 1004 10 16 0.00 0.00
7:56 pm 19:56 Sunny 91 32.8 76 24.4 61 61 SSE 10 17 29.65 1004 10 16 0.00 0.00
8:56 pm 20:56 Sunny 86 30 75 23.9 70 70 SSE 9 15 29.65 1004 10 16 0.00 0.00
9:56 pm 21:56 Clear 85 29.4 72 22.2 65 65 S 12 19 29.66 1005 10 16 0.00 0.00
10:56 pm 22:56 Clear 84 28.9 70 21.1 63 63 S 13 20 29.67 1005 10 16 0.00 0.00
11:56 pm 23:56 Clear 84 28.9 68 20 59 59 S 12 19 29.68 1005 10 16 0.00 0.00

Powered by AerisWeather